Preview of NWS' New Version of Forecast
This preview is not operational and should not be used for support decisions.

Terminal Aerodrome Forecast (TAF)

Issued by National Weather Service (NWS)

                            
000
FTUS42 KKEY 230530
TAFEYW
TAF
KEYW 230530Z 2306/2406 13007KT P6SM FEW020 SCT250=